GW4857 Weather Reports


time (UTC)temp
C
wind
direction
speed
KPH
gust
KPH
rain 1hr
cm
rain 24hr
cm
rain mn
cm
humidity
%
barometer
mb
20260508153510 18 72 0.0 4.8 0.00 0.00 0.00 81 1014.1
20260508153020 18 72 1.6 4.8 0.00 0.00 0.00 81 1014.0
20260508152510 18 72 0.0 4.8 0.00 0.00 0.00 81 1013.9
20260508152006 18 72 0.0 4.8 0.00 0.00 0.00 81 1014.0
20260508151527 18 72 0.0 4.8 0.00 0.00 0.00 81 1014.0
20260508151013 18 72 0.0 4.8 0.00 0.00 0.00 80 1013.9
20260508150506 18 72 0.0 6.4 0.00 0.00 0.00 80 1013.9
20260508150029 18 72 0.0 6.4 0.00 0.00 0.00 80 1013.9
20260508145511 18 67 0.0 4.8 0.00 0.00 0.00 81 1013.8
20260508145004 18 68 0.0 3.2 0.00 0.00 0.00 81 1013.9
20260508144512 18 68 0.0 3.2 0.00 0.00 0.00 81 1013.9
20260508144005 17 68 0.0 4.8 0.00 0.00 0.00 81 1013.8
20260508143505 17 68 0.0 4.8 0.00 0.00 0.00 81 1013.7
20260508143016 17 68 1.6 4.8 0.00 0.00 0.00 80 1013.8
20260508142507 17 68 1.6 3.2 0.00 0.00 0.00 81 1013.9
20260508142010 17 68 0.0 4.8 0.00 0.00 0.00 82 1013.9
20260508141531 17 68 0.0 4.8 0.00 0.00 0.00 81 1013.9
20260508141009 17 68 0.0 4.8 0.00 0.00 0.00 81 1013.9
20260508140507 17 68 1.6 4.8 0.00 0.00 0.00 80 1013.8
20260508140021 17 90 0.0 6.4 0.00 0.00 0.00 80 1013.9
20260508135510 17 18 0.0 11.3 0.00 0.00 0.00 82 1013.8
20260508135007 17 18 6.4 11.3 0.00 0.00 0.00 82 1013.6
20260508134528 16 1 1.6 4.8 0.00 0.00 0.00 82 1013.7
20260508134008 16 1 0.0 3.2 0.00 0.00 0.00 82 1013.8
20260508133512 16 1 0.0 3.2 0.00 0.00 0.00 84 1014.2
20260508133015 16 1 0.0 6.4 0.00 0.00 0.00 83 1014.2
20260508132508 16 1 0.0 6.4 0.00 0.00 0.00 84 1014.3
20260508132008 16 1 3.2 4.8 0.00 0.00 0.00 85 1014.0
20260508131518 16 1 0.0 3.2 0.00 0.00 0.00 85 1014.3
20260508131007 16 1 0.0 0.0 0.00 0.00 0.00 85 1014.3
20260508130508 15 1 0.0 0.0 0.00 0.00 0.00 85 1014.3
20260508130022 15 1 0.0 0.0 0.00 0.00 0.00 86 1014.1
20260508125509 15 1 0.0 1.6 0.00 0.00 0.00 86 1014.2
20260508125014 15 1 0.0 1.6 0.00 0.00 0.00 87 1014.2
20260508124527 15 1 0.0 1.6 0.00 0.00 0.00 87 1014.1
20260508124010 15 1 0.0 1.6 0.00 0.00 0.00 87 1014.2
20260508123507 15 1 0.0 3.2 0.00 0.00 0.00 87 1014.4
20260508123042 15 1 0.0 3.2 0.00 0.00 0.00 87 1014.4
20260508122508 15 1 0.0 3.2 0.00 0.00 0.00 87 1014.3
20260508122008 15 1 0.0 0.0 0.00 0.00 0.00 87 1014.3
20260508121517 15 1 0.0 0.0 0.00 0.00 0.00 87 1014.3
20260508121007 15 1 0.0 0.0 0.00 0.00 0.00 87 1014.4
20260508120507 15 1 0.0 4.8 0.00 0.00 0.00 87 1014.6
20260508120005 15 1 0.0 8.0 0.00 0.00 0.00 87 1014.6
20260508115504 15 1 3.2 8.0 0.00 0.00 0.00 87 1014.5
20260508115003 15 358 3.2 6.4 0.00 0.00 0.00 87 1014.6
20260508114506 15 359 0.0 3.2 0.00 0.00 0.00 86 1014.8
20260508114006 15 359 0.0 4.8 0.00 0.00 0.00 86 1015.0
20260508113503 15 359 0.0 6.4 0.00 0.00 0.00 86 1015.1
20260508113010 15 360 3.2 8.0 0.00 0.00 0.00 86 1015.0
20260508112507 15 359 3.2 8.0 0.00 0.00 0.00 87 1014.8
20260508112003 15 360 3.2 9.7 0.00 0.00 0.00 87 1014.7
20260508111514 15 13 3.2 9.7 0.00 0.00 0.00 87 1014.7
20260508111011 15 3 4.8 12.9 0.00 0.00 0.00 87 1014.6
20260508110503 15 360 4.8 12.9 0.00 0.00 0.00 87 1014.6
20260508110013 15 2 4.8 12.9 0.00 0.00 0.00 87 1014.4
20260508105510 15 1 4.8 9.7 0.00 0.00 0.00 87 1014.5
20260508105008 15 360 6.4 9.7 0.00 0.00 0.00 87 1014.4
20260508104508 15 1 3.2 8.0 0.00 0.00 0.00 87 1014.2
20260508104003 15 2 1.6 8.0 0.00 0.00 0.00 87 1014.5
20260508103503 15 360 3.2 8.0 0.00 0.00 0.00 87 1014.6
20260508103007 15 352 3.2 6.4 0.00 0.00 0.00 87 1014.7
20260508102504 15 350 3.2 8.0 0.00 0.00 0.00 86 1014.7
20260508102007 15 350 1.6 8.0 0.00 0.00 0.00 86 1014.9
20260508101513 15 348 3.2 6.4 0.00 0.00 0.00 86 1014.8
20260508101006 15 353 3.2 9.7 0.00 0.00 0.00 86 1015.0
20260508100511 15 355 1.6 9.7 0.00 0.00 0.00 86 1015.1
20260508100016 15 7 3.2 8.0 0.00 0.00 0.00 86 1015.1
20260508095505 15 347 0.0 8.0 0.00 0.00 0.00 85 1015.1
20260508095005 15 315 3.2 8.0 0.00 0.00 0.00 85 1015.0
20260508094518 15 1 3.2 8.0 0.00 0.00 0.00 84 1015.2
20260508094004 15 1 3.2 8.0 0.00 0.00 0.00 84 1015.2
20260508093509 15 1 1.6 4.8 0.00 0.00 0.00 84 1015.2
20260508093012 15 1 0.0 3.2 0.00 0.00 0.00 83 1015.3
20260508092504 15 1 0.0 3.2 0.00 0.00 0.00 83 1015.2
20260508092004 15 1 0.0 4.8 0.00 0.00 0.00 83 1015.0
20260508091509 15 1 0.0 4.8 0.00 0.00 0.00 83 1014.9
20260508091005 15 1 1.6 3.2 0.00 0.00 0.00 83 1014.8
20260508090507 15 1 0.0 3.2 0.00 0.00 0.00 83 1014.8
20260508090021 15 1 1.6 3.2 0.00 0.00 0.00 83 1014.7
20260508085502 15 1 0.0 4.8 0.00 0.00 0.00 82 1014.6
20260508085007 15 1 0.0 4.8 0.00 0.00 0.00 83 1014.6
20260508084515 15 1 0.0 4.8 0.00 0.00 0.00 83 1014.5
20260508084004 15 1 1.6 4.8 0.00 0.00 0.00 83 1014.3
20260508083507 15 1 0.0 0.0 0.00 0.00 0.00 83 1014.6
20260508083024 15 1 0.0 0.0 0.00 0.00 0.00 83 1014.7
20260508082503 15 1 0.0 0.0 0.00 0.00 0.00 83 1014.7
20260508082009 15 1 0.0 0.0 0.00 0.00 0.00 84 1014.6
20260508081528 15 1 0.0 4.8 0.00 0.00 0.00 84 1014.4
20260508081005 15 1 0.0 4.8 0.00 0.00 0.00 84 1014.5
20260508080505 15 1 1.6 4.8 0.00 0.00 0.00 85 1014.3
20260508080010 15 1 1.6 6.4 0.00 0.00 0.00 85 1014.3
20260508075506 15 1 1.6 6.4 0.00 0.00 0.00 85 1014.3
20260508075005 15 1 1.6 6.4 0.00 0.00 0.00 85 1014.3
20260508074526 15 1 3.2 6.4 0.00 0.00 0.00 85 1014.2
20260508074008 15 1 3.2 6.4 0.00 0.00 0.00 85 1014.3
20260508073508 15 1 4.8 6.4 0.00 0.00 0.00 85 1014.3
20260508073018 14 1 3.2 6.4 0.00 0.00 0.00 86 1014.4
20260508072507 14 1 3.2 6.4 0.00 0.00 0.00 86 1014.4
20260508072010 14 1 1.6 4.8 0.00 0.00 0.00 86 1014.4
20260508071529 14 1 0.0 8.0 0.00 0.00 0.00 86 1014.6
20260508071008 14 1 1.6 8.0 0.00 0.00 0.00 86 1014.4
20260508070512 14 1 3.2 8.0 0.00 0.00 0.00 87 1014.5
20260508070027 14 11 1.6 4.8 0.00 0.00 0.00 87 1014.9
20260508065503 14 11 0.0 4.8 0.00 0.00 0.00 87 1015.0
20260508065003 13 11 0.0 4.8 0.00 0.00 0.00 87 1015.2
20260508064508 13 11 0.0 3.2 0.00 0.00 0.00 87 1015.4
20260508064004 13 11 0.0 0.0 0.00 0.00 0.00 87 1015.4
20260508063504 13 11 0.0 0.0 0.00 0.00 0.00 87 1015.5
20260508063008 13 11 0.0 3.2 0.00 0.00 0.00 87 1015.8
20260508062510 13 11 0.0 3.2 0.00 0.00 0.00 87 1015.5
20260508062007 13 11 1.6 3.2 0.00 0.00 0.00 87 1015.4
20260508061510 13 11 0.0 1.6 0.00 0.00 0.00 87 1015.6
20260508061008 13 11 0.0 4.8 0.00 0.00 0.00 87 1015.6
20260508060508 13 11 0.0 4.8 0.00 0.00 0.00 86 1015.7
20260508060011 13 11 0.0 1.6 0.00 0.00 0.00 86 1015.6
20260508055507 14 11 0.0 0.0 0.00 0.00 0.00 86 1015.6
20260508055009 14 11 0.0 3.2 0.00 0.00 0.00 86 1015.5
20260508054511 14 11 0.0 3.2 0.00 0.00 0.00 86 1015.3
20260508054007 14 11 0.0 3.2 0.00 0.00 0.00 86 1015.3
20260508053504 14 11 0.0 3.2 0.00 0.00 0.00 86 1015.4
20260508053009 14 11 0.0 3.2 0.00 0.00 0.00 86 1015.3
20260508052505 14 11 0.0 3.2 0.00 0.00 0.00 86 1015.6
20260508052011 14 11 0.0 4.8 0.00 0.00 0.00 86 1015.5
20260508051510 14 11 1.6 4.8 0.00 0.00 0.00 86 1015.4
20260508051008 14 11 1.6 6.4 0.00 0.00 0.00 86 1015.5
20260508050507 14 11 1.6 6.4 0.00 0.00 0.00 87 1015.5
20260508050021 14 11 0.0 3.2 0.00 0.00 0.00 87 1015.6
20260508045512 14 11 0.0 1.6 0.00 0.00 0.00 87 1015.8
20260508045007 14 11 0.0 1.6 0.00 0.00 0.00 87 1015.6
20260508044514 14 11 0.0 0.0 0.00 0.00 0.00 87 1016.0
20260508044009 14 11 0.0 0.0 0.00 0.00 0.00 87 1016.1
20260508043509 14 11 0.0 0.0 0.00 0.00 0.00 87 1016.2
20260508043015 14 11 0.0 0.0 0.00 0.00 0.00 87 1015.8
20260508042511 14 11 0.0 0.0 0.00 0.00 0.00 87 1015.7
20260508042010 13 11 0.0 0.0 0.00 0.00 0.00 87 1015.6
20260508041515 13 11 0.0 0.0 0.00 0.00 0.00 86 1015.6
20260508041006 14 11 0.0 0.0 0.00 0.00 0.00 86 1015.9
20260508040509 14 11 0.0 0.0 0.00 0.00 0.00 86 1016.0
20260508040018 14 11 0.0 0.0 0.00 0.00 0.00 85 1016.1
20260508035508 14 11 0.0 0.0 0.00 0.00 0.00 85 1016.1
20260508035012 14 11 0.0 0.0 0.00 0.00 0.00 84 1016.1
20260508034521 14 11 0.0 0.0 0.00 0.00 0.00 84 1016.4
20260508034008 15 11 0.0 0.0 0.00 0.00 0.00 84 1016.4
20260508033514 15 11 0.0 0.0 0.00 0.00 0.00 83 1016.4
20260508033018 15 11 0.0 0.0 0.00 0.00 0.00 83 1016.3
20260508032509 15 11 0.0 3.2 0.00 0.00 0.00 83 1016.1
20260508032013 15 11 0.0 3.2 0.00 0.00 0.00 83 1016.0
20260508031521 15 11 0.0 3.2 0.00 0.00 0.00 82 1016.3
20260508031011 15 11 0.0 1.6 0.00 0.00 0.00 82 1016.3
20260508030505 15 11 0.0 3.2 0.00 0.00 0.00 82 1016.1
20260508030017 15 11 0.0 3.2 0.00 0.00 0.00 81 1015.5
20260508025508 15 11 1.6 3.2 0.00 0.00 0.00 81 1015.0
20260508025013 15 11 0.0 4.8 0.00 0.00 0.00 81 1015.0
20260508024522 15 11 1.6 4.8 0.00 0.00 0.00 81 1015.1
20260508024008 15 11 0.0 4.8 0.00 0.00 0.00 80 1015.2
20260508023509 15 11 1.6 8.0 0.00 0.00 0.00 80 1015.0
20260508023027 15 11 3.2 9.7 0.00 0.00 0.00 80 1014.7
20260508022509 15 11 4.8 9.7 0.00 0.00 0.00 80 1014.4
20260508022007 15 8 3.2 9.7 0.00 0.00 0.00 79 1014.5
20260508021532 15 19 3.2 9.7 0.00 0.00 0.00 79 1014.5
20260508021012 16 15 3.2 9.7 0.00 0.00 0.00 79 1014.4
20260508020510 16 17 3.2 9.7 0.00 0.00 0.00 79 1014.4
20260508020025 16 16 3.2 8.0 0.00 0.00 0.00 78 1014.4
20260508015510 16 15 3.2 6.4 0.00 0.00 0.00 78 1014.5
20260508015007 16 12 0.0 9.7 0.00 0.00 0.00 78 1014.4
20260508014520 16 12 0.0 9.7 0.00 0.00 0.00 78 1014.3
20260508014008 16 12 1.6 9.7 0.00 0.00 0.00 78 1014.5
20260508013517 16 12 3.2 9.7 0.00 0.00 0.00 78 1014.6
20260508013034 16 11 4.8 9.7 0.00 0.00 0.00 77 1014.7
20260508012511 16 11 3.2 9.7 0.00 0.00 0.00 77 1014.6
20260508012011 16 13 4.8 9.7 0.00 0.00 0.00 76 1014.4
20260508011525 16 1 3.2 8.0 0.00 0.00 0.00 76 1014.4
20260508011008 16 5 1.6 6.4 0.00 0.00 0.00 76 1014.3
20260508010511 16 5 1.6 6.4 0.00 0.00 0.00 75 1014.5
20260508010027 16 5 1.6 4.8 0.00 0.00 0.00 74 1014.6
20260508005510 16 5 1.6 4.8 0.00 0.00 0.00 74 1014.9
20260508005012 16 5 1.6 6.4 0.00 0.00 0.00 74 1014.9
20260508004535 17 5 1.6 8.0 0.00 0.00 0.00 73 1015.3
20260508004013 17 5 3.2 9.7 0.00 0.00 0.00 73 1015.0
20260508003512 17 15 4.8 9.7 0.00 0.00 0.00 73 1015.1
20260508003024 17 1 3.2 8.0 0.00 0.00 0.00 72 1015.1
20260508002507 17 10 3.2 6.4 0.00 0.00 0.00 73 1015.0
20260508002011 17 10 0.0 4.8 0.00 0.00 0.00 73 1015.2
20260508001522 17 10 1.6 4.8 0.00 0.00 0.00 73 1015.4
20260508001009 17 10 0.0 8.0 0.00 0.00 0.00 71 1015.5
20260508000511 17 10 3.2 8.0 0.00 0.00 0.00 71 1015.6
20260508000025 17 10 1.6 6.4 0.00 0.00 0.00 71 1015.7
20260507235510 17 10 3.2 6.4 0.00 0.00 0.00 70 1015.7
20260507235008 17 10 1.6 4.8 0.00 0.00 0.00 69 1016.1
20260507234529 17 10 1.6 4.8 0.00 0.00 0.00 71 1016.3
20260507234006 17 10 1.6 4.8 0.00 0.00 0.00 70 1016.4
20260507233508 17 10 1.6 4.8 0.00 0.00 0.00 69 1016.3
20260507233036 17 10 0.0 6.4 0.00 0.00 0.00 68 1016.2
20260507232510 17 10 1.6 8.0 0.00 0.00 0.00 70 1015.9
20260507232012 17 10 0.0 9.7 0.00 0.00 0.00 69 1015.5
20260507231526 17 8 4.8 9.7 0.00 0.00 0.00 68 1015.1
20260507231012 17 7 1.6 8.0 0.00 0.00 0.00 69 1015.5
20260507230510 17 8 1.6 9.7 0.00 0.00 0.00 68 1015.8
20260507230026 17 13 4.8 9.7 0.00 0.00 0.00 68 1015.8
20260507225510 18 8 4.8 11.3 0.00 0.00 0.00 69 1015.7
20260507225009 18 1 4.8 11.3 0.00 0.00 0.00 68 1015.8
20260507224518 18 6 3.2 11.3 0.00 0.00 0.00 68 1016.1
20260507224013 17 359 6.4 11.3 0.00 0.00 0.00 67 1016.2
20260507223510 17 1 1.6 8.0 0.00 0.00 0.00 69 1016.4
20260507223016 17 1 3.2 8.0 0.00 0.00 0.00 68 1016.4
20260507222509 17 1 4.8 9.7 0.00 0.00 0.00 67 1016.2
20260507222008 17 6 3.2 9.7 0.00 0.00 0.00 68 1016.3
20260507221518 17 1 0.0 9.7 0.00 0.00 0.00 68 1016.4
20260507221015 17 1 0.0 11.3 0.00 0.00 0.00 69 1016.4
20260507220508 17 15 4.8 11.3 0.00 0.00 0.00 68 1016.3
20260507220021 17 15 4.8 11.3 0.00 0.00 0.00 69 1016.4
20260507215509 17 11 3.2 11.3 0.00 0.00 0.00 70 1016.8
20260507215007 17 299 1.6 12.9 0.00 0.00 0.00 70 1017.1
20260507214521 17 25 6.4 12.9 0.00 0.00 0.00 69 1016.8
20260507214013 18 20 4.8 11.3 0.00 0.00 0.00 69 1017.0
20260507213513 18 359 3.2 8.0 0.00 0.00 0.00 69 1017.2
20260507213020 18 349 0.0 11.3 0.00 0.00 0.00 70 1017.0
20260507212509 17 349 4.8 12.9 0.00 0.00 0.00 69 1016.8
20260507212010 17 359 3.2 14.5 0.00 0.00 0.00 68 1016.8
20260507211517 17 6 6.4 14.5 0.00 0.00 0.00 69 1017.0
20260507211007 17 23 4.8 12.9 0.00 0.00 0.00 69 1016.7
20260507210509 17 18 4.8 14.5 0.00 0.00 0.00 68 1016.8
20260507210035 17 11 6.4 14.5 0.00 0.00 0.00 69 1016.2
20260507205510 17 8 6.4 14.5 0.00 0.00 0.00 70 1016.5
20260507205006 17 25 6.4 16.1 0.00 0.00 0.00 69 1016.9
20260507204523 17 18 6.4 16.1 0.00 0.00 0.00 69 1016.8
20260507204011 17 1 8.0 16.1 0.00 0.00 0.00 68 1017.1
20260507203506 17 4 4.8 14.5 0.00 0.00 0.00 70 1017.1
20260507203024 17 359 6.4 12.9 0.00 0.00 0.00 70 1017.3
20260507202508 17 1 6.4 12.9 0.00 0.00 0.00 70 1017.2
20260507202006 17 2 1.6 4.8 0.00 0.00 0.00 70 1017.5
20260507201525 17 2 0.0 6.4 0.00 0.00 0.00 72 1017.7
20260507201007 17 2 1.6 12.9 0.00 0.00 0.00 73 1017.5
20260507200509 17 359 4.8 16.1 0.00 0.00 0.00 71 1017.2
20260507200019 17 4 4.8 16.1 0.00 0.00 0.00 72 1016.8
20260507195503 17 1 3.2 8.0 0.00 0.00 0.00 72 1017.3
20260507195003 17 316 3.2 9.7 0.00 0.00 0.00 70 1017.5
20260507194509 17 347 3.2 9.7 0.00 0.00 0.00 70 1017.7
20260507194004 17 1 1.6 12.9 0.00 0.00 0.00 71 1018.2
20260507193502 17 3 4.8 12.9 0.00 0.00 0.00 70 1018.0
20260507193006 17 359 4.8 12.9 0.00 0.00 0.00 71 1018.4
20260507192507 17 13 1.6 12.9 0.00 0.00 0.00 70 1018.5
20260507192002 17 18 4.8 12.9 0.00 0.00 0.00 71 1018.0
20260507191506 17 22 6.4 16.1 0.00 0.00 0.00 70 1017.8
20260507191008 17 7 3.2 17.7 0.00 0.00 0.00 71 1018.1
20260507190502 17 20 8.0 17.7 0.00 0.00 0.00 71 1017.9
20260507190008 17 359 4.8 16.1 0.00 0.00 0.00 73 1017.6
20260507185503 16 18 8.0 16.1 0.00 0.00 0.00 72 1017.8
20260507185005 16 27 6.4 16.1 0.00 0.00 0.00 72 1018.1
20260507184515 16 23 8.0 17.7 0.00 0.00 0.00 72 1017.9
20260507184002 16 21 6.4 17.7 0.00 0.00 0.00 73 1017.4
20260507183505 16 10 4.8 16.1 0.00 0.00 0.00 73 1017.6
20260507183004 16 345 8.0 16.1 0.00 0.00 0.00 73 1017.7
20260507182504 16 15 6.4 20.9 0.00 0.00 0.00 73 1018.1
20260507182004 16 19 6.4 20.9 0.00 0.00 0.00 73 1017.7
20260507181506 16 10 6.4 16.1 0.00 0.00 0.00 72 1017.9
20260507181006 16 11 4.8 14.5 0.00 0.00 0.00 73 1018.2
20260507180503 16 9 8.0 16.1 0.00 0.00 0.00 72 1018.1
20260507180012 16 360 9.7 16.1 0.00 0.00 0.00 72 1018.7
20260507175502 17 360 8.0 16.1 0.00 0.00 0.00 72 1018.8
20260507175002 16 8 4.8 19.3 0.00 0.00 0.00 74 1019.0
20260507174516 16 4 6.4 19.3 0.00 0.00 0.00 73 1018.4
20260507174003 16 4 8.0 22.5 0.00 0.00 0.00 74 1018.0
20260507173503 16 350 11.3 22.5 0.00 0.00 0.00 75 1017.7
20260507173003 16 23 8.0 20.9 0.00 0.00 0.00 77 1018.0
20260507172503 16 5 8.0 20.9 0.00 0.00 0.00 78 1018.2
20260507172004 15 3 8.0 20.9 0.00 0.00 0.00 79 1018.3
20260507171506 15 25 6.4 19.3 0.00 0.00 0.00 80 1018.8
20260507171003 15 338 6.4 19.3 0.00 0.00 0.00 80 1018.2
20260507170506 15 6 6.4 19.3 0.00 0.00 0.00 81 1018.0
20260507170012 15 16 11.3 19.3 0.00 0.00 0.00 82 1017.7
20260507165502 15 20 4.8 14.5 0.00 0.00 0.00 82 1017.8
20260507165004 15 17 6.4 14.5 0.00 0.00 0.00 82 1018.2
20260507164515 15 359 1.6 12.9 0.00 0.00 0.00 81 1018.1
20260507164004 15 1 4.8 11.3 0.00 0.00 0.00 81 1019.0
20260507163506 15 2 6.4 11.3 0.00 0.00 0.00 80 1018.9
20260507163017 15 360 4.8 9.7 0.00 0.00 0.00 80 1019.9
20260507162504 15 330 3.2 6.4 0.00 0.00 0.00 80 1019.9
20260507162004 15 323 1.6 11.3 0.00 0.00 0.00 80 1020.1
20260507161505 15 311 0.0 12.9 0.00 0.00 0.00 81 1020.1
20260507161003 15 11 3.2 14.5 0.00 0.00 0.00 81 1019.9
20260507160504 14 1 3.2 14.5 0.00 0.00 0.00 81 1019.4
20260507160008 14 354 4.8 12.9 0.00 0.00 0.00 80 1019.3
20260507155510 14 1 6.4 14.5 0.00 0.00 0.00 81 1019.2
20260507155006 14 11 3.2 14.5 0.00 0.00 0.00 81 1019.5
20260507154522 14 1 6.4 14.5 0.00 0.00 0.00 81 1019.4
20260507154003 14 356 3.2 12.9 0.00 0.00 0.00 81 1019.7